Temperature
20 19 20 19 20 20 20 20 20 20 20 20 20 19 19 19 19 19 19 18 18 18 18 18 18 18 18 18 18 18 18 18 18 18 18 17 17 17 17 17 17 17 17
20 19 20 20 20 20 20 20 20 20 20 20 20 19 19 19 19 19 19 18 18 18 18 18 18 18 18 18 18 18 18 18 18 18 18 17 17 17 17 17 17 17 17
20 19 20 19 19 19 20 20 20 20 20 20 20 19 19 19 19 19 18 18 18 18 18 18 18 18 18 18 18 18 18 18 18 18 17 17 17 17 17 17 17 17 17
20 19 19 19 19 19 19 19 20 20 20 20 20 19 19 19 19 19 18 18 18 19 19 18 18 18 18 18 18 18 18 18 18 18 17 17 17 17 17 17 17 17 17
20 19 19 19 19 19 19 19 19 19 19 19 19 19 19 19 19 19 19 18 19 19 18 18 18 18 18 18 18 18 18 18 18 17 17 17 17 17 17 17 17 17 17
19 19 19 19 19 19 19 19 19 19 19 19 19 19 19 19 19 19 19 18 18 18 18 18 18 18 18 18 18 18 18 18 17 17 17 17 17 17 17 17 17 17 17
20 19 19 19 19 19 19 19 19 19 19 19 19 19 19 19 19 18 18 18 18 18 18 18 18 18 18 18 18 18 18 18 17 17 17 17 17 17 17 17 17 17 17
20 20 19 19 19 19 19 19 19 19 19 19 19 19 19 19 18 18 18 18 18 18 18 18 18 18 18 18 18 18 18 17 17 17 17 17 17 17 17 17 17 17 17
20 20 18 18 18 18 18 18 19 19 19 19 19 19 19 18 18 18 18 18 18 18 18 18 18 18 18 18 18 18 18 18 18 17 17 17 17 17 17 17 17 17 17
19 19 18 18 18 18 18 18 18 18 19 19 18 18 18 18 18 18 18 18 17 17 17 18 18 18 18 18 18 18 18 18 18 18 18 17 18 17 17 17 17 17 17
19 19 19 18 18 18 18 18 18 18 18 18 18 18 18 17 17 17 17 17 17 17 17 17 18 18 18 18 18 18 18 18 18 18 17 17 18 17 17 17 17 17 17
18 18 18 18 18 18 18 17 17 17 18 17 17 17 17 17 17 17 17 17 17 17 17 17 17 17 17 17 17 18 17 17 18 18 17 18 18 17 17 17 17 17 17
18 18 18 18 18 18 18 18 17 17 17 17 17 17 17 17 17 17 17 17 17 17 17 17 17 17 17 17 17 17 17 18 18 18 18 18 17 17 17 17 17 17 17
18 18 17 17 18 18 18 18 18 17 17 17 17 17 17 17 17 17 17 17 17 17 17 17 17 17 17 17 17 17 17 17 17 17 17 17 17 17 17 17 17 17 17
18 17 17 18 18 18 18 18 17 17 17 17 17 17 17 16 16 16 16 17 16 16 16 16 16 17 16 16 16 16 16 17 17 17 17 17 17 17 17 17 17 17 17
18 17 18 18 18 18 18 17 17 17 17 17 16 17 17 16 16 16 16 16 16 16 16 16 16 16 16 16 16 16 16 17 16 17 17 17 17 17 17 17 17 17 17
17 17 18 18 18 18 17 17 17 17 16 16 16 17 16 16 16 16 15 15 15 15 16 16 16 16 16 16 16 16 16 16 16 16 17 17 17 17 17 17 17 17 17
17 17 18 17 17 17 17 17 17 16 16 16 16 16 16 16 15 15 15 15 15 15 15 15 15 15 15 16 16 16 16 16 16 16 16 16 16 17 17 17 17 16 16
17 17 17 17 17 17 17 17 16 16 16 16 15 15 15 15 15 14 14 14 14 15 15 15 15 15 15 15 16 15 16 16 16 16 16 16 16 16 16 16 16 16 16
17 17 17 17 17 17 17 17 16 16 16 15 15 15 15 14 14 14 14 14 14 14 14 14 14 14 15 15 16 16 15 15 15 16 16 16 16 16 16 16 16 16 16
17 17 17 17 17 17 16 16 16 16 16 15 15 15 15 14 14 14 14 14 14 14 14 14 14 14 15 14 15 16 16 15 15 15 15 16 16 16 16 16 16 16 16
17 17 17 17 17 17 17 16 16 16 15 15 15 15 14 14 14 14 14 14 14 13 13 13 14 14 14 14 15 17 17 16 15 15 15 15 15 16 16 16 15 15 16
16 16 17 17 17 17 16 16 16 16 15 15 15 15 14 14 14 14 13 13 13 13 13 13 13 13 14 14 14 16 17 18 17 15 15 15 15 15 15 15 15 15 15
16 16 17 17 17 17 17 16 16 16 16 15 15 15 14 14 14 14 13 13 13 13 13 13 13 13 13 15 14 14 14 15 16 17 15 15 14 15 15 15 15 15 15
17 17 17 17 17 17 17 16 16 16 16 15 15 15 14 14 14 14 13 13 13 13 13 13 13 13 13 14 14 14 14 14 15 16 17 16 15 15 14 14 14 15 15
17 16 16 17 17 17 17 17 16 16 16 16 15 15 15 14 14 14 13 13 13 13 12 12 12 12 13 13 13 14 14 15 15 15 16 15 16 15 14 14 14 14 14
Wind_Speed
15 18 19 16 16 16 16 17 17 17 17 16 15 15 14 13 11 11 10 10 10 10 9 10 10 9 9 8 8 7 7 7 8 9 9 10 12 14 14 14 13 14 15
18 20 20 17 16 16 16 17 17 17 16 16 15 14 13 12 11 10 10 10 10 9 9 9 9 9 9 8 8 7 7 7 8 9 10 12 13 14 13 11 10 14 14
20 21 21 18 17 16 16 16 16 16 16 15 14 13 12 11 11 10 10 10 9 9 9 9 9 8 8 8 8 7 7 8 8 9 9 12 14 13 12 11 15 15 14
21 21 21 19 17 16 16 16 16 15 15 14 13 12 11 11 10 9 9 9 9 9 8 8 8 8 8 8 8 7 7 8 7 6 8 12 13 13 12 13 14 14 13
20 20 20 20 18 17 16 16 15 15 14 13 12 12 11 10 9 8 8 8 8 8 7 7 7 7 7 7 7 6 7 7 4 4 9 10 12 13 13 14 14 13 13
19 19 21 19 18 17 16 15 15 14 13 13 12 11 10 9 8 8 7 7 7 7 6 6 6 6 6 6 6 5 6 4 7 6 8 9 12 13 13 13 13 13 12
19 18 21 18 17 16 16 15 15 14 13 12 11 10 8 7 7 6 6 6 6 5 5 5 5 5 5 5 5 5 5 2 1 6 7 8 12 13 12 12 12 12 12
18 17 20 17 16 16 15 15 14 13 12 11 9 8 7 6 5 5 4 5 5 4 4 4 4 4 4 4 4 4 3 4 4 5 6 9 12 11 11 11 12 12 12
16 16 17 18 16 15 14 14 13 12 11 9 8 7 6 5 4 3 3 3 3 4 3 3 3 3 2 2 3 3 2 4 2 5 6 8 11 9 10 11 11 11 11
14 14 15 15 15 15 14 13 12 11 10 9 8 6 5 5 5 3 5 4 3 3 4 3 3 3 3 2 2 2 2 6 3 5 5 10 11 9 10 11 11 10 10
13 12 13 13 13 12 12 13 12 11 9 9 8 6 5 5 4 5 2 2 3 3 4 4 4 4 4 5 4 3 5 6 3 3 4 12 10 9 9 10 10 10 10
15 13 11 11 12 12 10 11 9 9 8 6 4 4 3 1 1 1 5 2 3 4 5 5 4 6 8 7 8 7 6 5 2 3 6 11 9 9 9 10 11 11 11
15 13 12 11 11 10 8 8 7 6 6 5 3 2 1 1 2 2 2 4 4 6 6 5 7 7 6 4 4 5 4 4 3 3 7 10 9 9 10 11 12 12 11
14 13 12 11 9 8 7 7 6 5 5 4 4 1 1 0 2 1 2 2 3 4 3 4 4 4 4 4 5 4 4 5 4 3 5 8 9 10 11 12 13 13 12
13 12 11 10 10 8 7 6 6 5 4 5 3 3 1 1 1 1 1 2 3 3 4 4 4 3 4 4 4 5 5 4 4 5 4 7 8 10 11 12 13 13 13
11 11 10 10 9 9 7 6 5 6 5 4 4 4 3 2 2 2 1 1 2 2 2 2 2 3 3 3 3 3 4 4 4 5 5 7 8 9 12 13 13 14 14
10 11 11 10 9 9 8 7 6 6 6 5 5 5 3 3 2 2 1 1 1 1 1 2 2 2 3 3 3 3 3 3 3 4 5 4 7 9 12 13 14 15 15
10 11 11 10 10 9 7 6 6 6 6 5 5 5 4 4 3 2 1 1 1 1 1 1 2 2 1 2 2 2 2 2 3 4 6 6 6 6 10 13 14 14 15
10 10 10 9 10 9 8 7 7 6 5 5 5 5 5 4 3 2 2 2 1 1 1 1 0 2 1 2 2 2 2 2 2 4 4 5 5 6 6 10 13 14 15
9 9 10 10 10 9 8 7 6 6 5 5 4 5 3 4 3 2 2 2 1 1 1 1 1 1 2 2 3 1 2 1 2 1 4 4 4 6 7 7 10 13 15
9 9 11 11 11 9 8 8 7 6 5 4 4 5 3 3 3 2 2 2 1 2 2 1 1 1 1 2 4 3 3 2 0 0 1 2 1 3 4 5 8 8 10
11 11 12 12 11 10 8 7 5 5 5 4 4 5 4 3 3 3 3 2 2 2 2 1 2 2 1 1 3 4 4 4 3 1 1 1 1 1 2 3 4 5 8
12 12 12 12 12 11 10 8 7 6 5 5 5 5 5 4 3 3 2 2 2 0 2 1 1 1 1 0 2 3 3 2 4 4 2 2 2 1 0 0 1 2 5
14 13 12 13 12 11 11 9 10 7 6 5 5 5 6 5 4 3 2 2 1 2 2 0 3 1 2 1 1 1 3 4 3 2 4 3 2 2 3 2 1 1 1
14 13 13 13 12 12 11 10 9 8 5 5 5 6 6 6 6 5 4 3 2 1 1 2 1 2 1 2 1 1 1 2 4 5 2 2 2 1 0 1 1 1 1
14 14 14 13 13 12 12 11 11 9 7 6 7 7 7 6 6 7 6 5 4 2 2 1 1 1 2 2 2 1 2 2 3 3 4 5 4 3 2 2 2 1 1
Wind_Direction
158 151 144 149 145 140 135 131 128 129 130 129 127 126 124 123 121 116 111 106 100 95 92 90 88 85 83 82 81 80 85 93 102 108 115 119 119 120 125 131 135 120 121
152 149 147 151 148 143 137 132 130 129 128 128 126 124 123 121 119 116 113 106 100 96 93 91 88 85 81 78 77 79 86 95 105 115 123 122 119 124 129 131 120 120 127
151 149 153 153 151 146 141 136 133 131 129 128 126 125 122 120 119 117 113 109 102 98 93 91 89 86 81 75 74 78 88 98 106 124 143 127 120 120 122 116 115 125 128
153 152 156 153 154 150 145 140 136 134 132 131 130 128 125 123 120 116 112 110 105 102 98 94 91 85 78 72 71 79 93 100 112 168 142 121 124 124 126 124 125 129 128
153 153 149 156 157 154 149 144 141 139 137 136 134 132 131 128 124 119 114 111 108 106 102 98 93 86 76 68 67 80 100 112 157 201 106 114 116 126 130 128 129 129 129
153 156 151 159 157 155 151 148 146 143 142 141 140 138 137 135 132 127 122 118 115 112 107 104 98 89 76 65 62 80 108 146 215 115 111 120 120 131 134 133 134 133 132
157 158 152 159 157 155 153 151 148 147 146 145 143 141 140 139 138 135 131 130 127 123 119 112 109 100 83 66 60 82 113 206 188 108 118 118 120 136 138 137 138 137 136
158 157 149 156 157 155 153 152 151 150 148 147 145 142 140 138 136 137 141 141 142 143 138 132 128 118 96 74 63 83 116 265 140 115 120 117 124 142 142 143 145 144 143
159 156 154 162 161 157 153 153 151 149 147 146 144 143 143 144 147 147 156 165 165 164 165 164 153 144 131 102 75 80 123 283 217 124 129 122 134 150 150 151 155 153 150
160 160 158 166 162 166 160 153 149 146 145 143 142 144 148 159 168 176 201 184 200 203 198 196 190 177 162 151 120 106 184 247 206 150 138 128 145 162 164 162 162 159 156
163 164 166 161 162 167 162 154 156 150 148 157 158 153 189 199 188 189 178 134 212 219 218 211 203 189 191 178 169 176 225 240 181 145 122 126 160 176 175 171 170 170 168
166 167 166 164 164 169 162 153 162 164 155 172 149 166 195 189 248 245 125 175 219 221 215 206 206 205 224 202 177 200 226 233 232 180 134 140 173 187 186 180 178 181 181
167 167 167 165 166 166 158 159 159 149 146 152 131 137 133 234 236 241 227 198 215 220 225 195 213 225 222 220 220 215 229 236 235 224 144 155 184 197 197 191 189 191 190
168 168 167 162 163 165 159 152 154 154 154 146 127 147 146 249 294 315 279 275 245 235 232 234 223 229 231 216 222 224 220 235 236 240 139 160 194 204 204 199 198 199 199
168 166 163 162 160 156 151 158 148 145 143 122 110 87 16 317 335 328 315 298 276 263 231 228 231 218 214 210 220 212 222 230 241 244 186 170 202 212 209 204 202 203 205
169 165 160 161 159 155 154 148 138 135 125 116 100 77 36 19 14 327 275 303 294 282 288 256 236 215 217 205 218 212 224 225 223 240 234 186 195 208 209 205 205 207 208
169 166 161 161 159 156 152 147 139 140 133 112 96 85 61 44 35 344 354 292 348 323 228 228 223 221 212 204 205 215 226 240 233 238 250 238 207 199 204 206 207 209 209
166 166 163 163 156 151 144 145 142 137 123 110 102 94 75 60 41 351 353 21 353 288 240 192 248 223 228 239 218 237 230 229 241 242 243 238 239 229 200 199 206 210 211
163 159 157 154 153 148 144 143 133 126 120 118 108 94 86 71 53 29 36 34 293 288 288 270 72 292 255 279 242 222 252 254 255 247 253 249 238 241 230 193 206 213 214
157 155 152 147 148 147 144 141 142 140 139 131 114 99 96 86 61 30 82 48 344 64 61 42 45 357 313 297 285 270 266 260 258 273 260 244 235 233 231 225 216 213 214
165 165 159 155 152 156 159 162 163 161 158 152 139 124 118 93 82 33 56 80 8 56 21 353 308 213 275 307 259 225 196 197 173 237 298 292 238 239 238 227 231 225 211
173 172 164 161 164 172 168 168 167 157 170 161 150 142 145 128 114 100 56 84 72 87 75 29 332 307 357 318 290 254 212 179 179 93 95 73 1 251 217 218 231 228 242
175 172 171 169 172 178 170 169 159 160 177 174 175 173 170 162 141 92 96 66 74 25 83 41 348 313 313 104 330 303 284 242 158 149 108 86 66 20 37 150 227 233 236
177 173 172 174 178 178 178 183 182 189 190 183 188 174 176 186 183 167 147 112 80 67 93 118 62 349 303 276 147 334 340 350 296 187 177 151 111 53 31 348 80 114 224
177 175 176 177 182 181 188 190 197 205 198 184 188 176 195 191 200 197 189 177 179 163 88 51 71 358 339 329 313 251 236 238 269 285 237 202 199 175 63 328 357 29 47
179 180 180 181 186 187 192 198 208 210 206 198 201 193 203 198 201 200 202 203 208 196 175 182 173 159 20 9 322 300 278 277 272 272 271 256 256 232 250 270 258 260 279
Height
1542 1544 1545 1548 1551 1553 1555 1557 1558 1559 1560 1561 1562 1563 1563 1564 1564 1565 1565 1566 1566 1566 1567 1567 1567 1567 1567 1567 1567 1567 1567 1567 1567 1567 1567 1568 1569 1569 1570 1571 1572 1573 1573
1541 1544 1546 1549 1552 1554 1557 1558 1560 1561 1562 1563 1564 1564 1565 1565 1566 1566 1567 1567 1568 1568 1568 1568 1568 1568 1568 1568 1568 1568 1568 1568 1568 1569 1569 1570 1570 1571 1572 1573 1574 1575 1575
1541 1544 1546 1550 1553 1556 1558 1560 1561 1562 1563 1564 1565 1566 1566 1567 1567 1568 1568 1568 1569 1569 1570 1570 1570 1570 1570 1570 1570 1570 1570 1570 1570 1571 1571 1572 1572 1573 1574 1575 1576 1577 1578
1542 1545 1548 1551 1554 1557 1559 1561 1562 1563 1564 1565 1566 1567 1568 1568 1569 1569 1570 1570 1570 1571 1571 1572 1572 1572 1572 1572 1572 1572 1572 1572 1573 1573 1575 1575 1575 1575 1576 1577 1578 1579 1580
1543 1547 1549 1552 1555 1558 1560 1562 1563 1564 1565 1566 1567 1568 1569 1569 1570 1571 1571 1571 1572 1572 1573 1573 1574 1574 1574 1574 1574 1574 1574 1574 1575 1576 1578 1578 1578 1577 1578 1579 1580 1581 1582
1543 1548 1550 1553 1556 1559 1561 1563 1564 1565 1566 1567 1568 1569 1570 1571 1571 1572 1572 1573 1573 1574 1574 1574 1575 1575 1576 1576 1576 1576 1576 1577 1577 1580 1579 1580 1579 1579 1580 1581 1582 1583 1584
1545 1549 1551 1554 1557 1560 1562 1563 1565 1566 1567 1568 1569 1570 1571 1571 1572 1573 1573 1574 1574 1575 1575 1576 1576 1577 1577 1578 1578 1578 1578 1579 1581 1581 1581 1581 1581 1581 1582 1583 1584 1585 1586
1547 1551 1552 1555 1558 1560 1563 1564 1566 1567 1568 1569 1570 1570 1571 1572 1573 1573 1574 1575 1575 1576 1576 1577 1577 1578 1578 1579 1579 1580 1580 1580 1583 1583 1583 1583 1582 1583 1584 1585 1586 1587 1588
1549 1552 1554 1556 1558 1561 1563 1565 1566 1567 1568 1569 1570 1571 1572 1573 1573 1574 1575 1575 1576 1576 1577 1577 1578 1579 1579 1579 1580 1581 1581 1582 1585 1585 1585 1584 1583 1584 1585 1586 1587 1589 1589
1549 1552 1555 1558 1560 1562 1563 1565 1566 1568 1569 1570 1571 1572 1572 1573 1574 1575 1576 1576 1576 1577 1577 1578 1578 1579 1579 1580 1581 1581 1582 1583 1586 1586 1587 1585 1585 1585 1586 1587 1589 1590 1591
1549 1552 1555 1558 1560 1562 1565 1565 1567 1568 1569 1570 1571 1572 1573 1575 1576 1576 1576 1576 1577 1577 1577 1578 1578 1579 1580 1580 1581 1581 1583 1585 1587 1587 1587 1586 1586 1586 1587 1588 1589 1591 1592
1548 1551 1554 1557 1559 1563 1565 1565 1567 1569 1569 1571 1572 1573 1574 1574 1575 1576 1575 1576 1576 1577 1577 1577 1578 1578 1580 1581 1581 1582 1584 1585 1587 1587 1587 1586 1587 1587 1588 1589 1590 1591 1592
1547 1550 1553 1556 1559 1562 1564 1565 1567 1569 1569 1571 1572 1572 1573 1574 1575 1575 1575 1576 1576 1576 1577 1577 1577 1579 1580 1581 1581 1582 1583 1585 1586 1587 1587 1586 1587 1587 1588 1589 1590 1591 1592
1546 1549 1553 1555 1558 1560 1563 1565 1567 1569 1570 1571 1571 1572 1573 1574 1574 1574 1574 1574 1575 1576 1575 1576 1576 1577 1578 1578 1579 1580 1581 1583 1584 1585 1585 1585 1586 1587 1588 1589 1590 1591 1592
1545 1548 1551 1554 1557 1559 1562 1564 1567 1568 1570 1570 1571 1571 1571 1573 1573 1573 1572 1572 1574 1574 1574 1574 1575 1576 1576 1577 1578 1579 1580 1581 1582 1584 1584 1584 1585 1586 1587 1588 1589 1590 1592
1544 1547 1550 1553 1556 1559 1562 1564 1566 1568 1569 1570 1570 1570 1570 1571 1571 1571 1571 1571 1572 1572 1573 1573 1574 1574 1575 1576 1577 1577 1578 1580 1580 1581 1583 1583 1584 1585 1586 1587 1588 1589 1591
1544 1547 1550 1553 1556 1559 1562 1565 1566 1568 1569 1570 1570 1569 1569 1570 1569 1570 1571 1571 1571 1571 1571 1572 1572 1573 1574 1575 1575 1576 1577 1577 1579 1579 1581 1582 1582 1583 1584 1585 1586 1587 1589
1543 1546 1549 1553 1556 1559 1562 1564 1566 1568 1569 1569 1569 1569 1569 1568 1568 1569 1570 1570 1569 1571 1571 1571 1572 1573 1574 1574 1575 1575 1576 1576 1577 1577 1578 1579 1580 1581 1582 1582 1584 1585 1586
1541 1545 1548 1552 1554 1558 1561 1563 1566 1567 1568 1569 1570 1569 1568 1568 1568 1569 1569 1569 1569 1570 1571 1571 1572 1572 1573 1573 1574 1574 1575 1575 1575 1576 1576 1577 1578 1579 1580 1580 1581 1582 1584
1539 1543 1547 1550 1553 1557 1560 1563 1565 1567 1568 1569 1569 1568 1568 1568 1568 1568 1569 1568 1569 1570 1570 1570 1570 1570 1571 1572 1573 1573 1574 1574 1574 1574 1575 1576 1576 1576 1577 1578 1579 1580 1581
1538 1542 1545 1548 1552 1556 1559 1562 1565 1567 1568 1569 1569 1568 1568 1568 1568 1568 1569 1568 1568 1569 1569 1570 1570 1571 1571 1571 1573 1573 1573 1573 1573 1573 1574 1574 1574 1575 1576 1576 1577 1578 1578
1536 1539 1543 1547 1551 1555 1558 1562 1564 1566 1568 1568 1568 1568 1568 1568 1568 1569 1567 1569 1568 1568 1569 1569 1569 1571 1571 1571 1572 1572 1572 1574 1572 1573 1573 1573 1573 1574 1574 1575 1575 1575 1576
1534 1537 1542 1546 1550 1554 1557 1560 1563 1565 1566 1567 1568 1568 1568 1568 1568 1567 1568 1568 1568 1569 1569 1568 1569 1569 1571 1571 1571 1572 1571 1570 1571 1573 1572 1572 1572 1573 1573 1573 1573 1573 1574
1533 1537 1541 1545 1549 1553 1556 1559 1562 1564 1566 1567 1567 1568 1567 1567 1568 1568 1568 1567 1568 1569 1568 1569 1568 1569 1569 1571 1570 1570 1571 1571 1571 1571 1572 1572 1571 1571 1572 1572 1572 1572 1572
1533 1536 1540 1544 1548 1551 1554 1558 1560 1563 1565 1566 1566 1566 1567 1567 1567 1567 1567 1567 1567 1568 1568 1567 1567 1568 1569 1569 1570 1570 1570 1570 1571 1571 1571 1572 1572 1571 1571 1571 1571 1571 1571
1532 1535 1539 1543 1546 1549 1553 1556 1558 1561 1563 1564 1564 1565 1566 1566 1566 1566 1566 1566 1567 1568 1567 1567 1567 1567 1567 1567 1568 1570 1570 1570 1570 1570 1570 1570 1570 1570 1569 1569 1569 1569 1569